Regional Weather Roundup
Issued by NWS Kansas City/Pleasant Hill, MO

Home | Current Version | Previous Version | Graphics & Text | Print | Product List | Glossary Off
Versions: 1 2 3 4 5 6 7 8 9 10 11 12 13 14 15 16 17 18 19 20 21 22 23 24 25 26 27 28 29 30 31 32 33 34 35 36 37 38 39 40 41 42 43 44 45 46 47 48 49 50

000
ASUS43 KEAX 252104
RWREAX

WEATHER ROUNDUP FOR EASTERN KANSAS AND NORTHWEST MISSOURI
NATIONAL WEATHER SERVICE KANSAS CITY/PLEASANT HILL MO
300 PM CST THU DEC 25 2014

KSZ040-057-103>105-MOZ028-029-037-043-252200-
...KANSAS CITY METROPOLITAN AREA...

CITY           SKY/WX    TMP DP  RH WIND       PRES   REMARKS
K.C. INTL      PTSUNNY   52  29  41 S28G33    29.66F
K.C. DOWNTOWN  LGT RAIN  54  29  38 S23G33    29.71F
LEES SUMMIT    MOSUNNY   52  29  41 S21G37    29.72F
OLATHE - IXD   PTSUNNY   52  30  43 S20G39    29.69S
OLATHE - OJC   PTSUNNY   52  29  41 S23G32    29.68S
LAWRENCE       PTSUNNY   52  29  41 S23G33    29.66F

$$

MOZ001>008-011>017-020>025-030>033-038>040-044>046-053-054-252200-
...NORTHERN AND CENTRAL MISSOURI...

CITY           SKY/WX    TMP DP  RH WIND       PRES   REMARKS
ST. JOSEPH     PTSUNNY   54  32  43 S23G30    29.65F
MOSBY          PTCLDY    54  30  40 S14G26    29.72F
WARRENSBURG    SUNNY     54  28  37 S18G35    29.77F
WHITEMAN AFB   NOT AVBL
CLINTON        SUNNY     54  32  43 S18G29    29.81F
SEDALIA        SUNNY     54  29  38 S23G33    29.83S
WARSAW         NOT AVBL
MARSHALL       MOSUNNY   55  32  41 S21G28    29.81S
CHILLICOTHE      N/A     52  31  44 S16G23    29.75F
MOBERLY        SUNNY     52  28  40 S14G25    29.84F
KIRKSVILLE     MOSUNNY   50  30  46 S16G24    29.82S

$$

MOZ041-047>049-056>058-063>065-088>090-097-252200-
...EASTERN AND SOUTHERN MISSOURI...

CITY           SKY/WX    TMP DP  RH WIND       PRES   REMARKS
ST. LOUIS INTL MOSUNNY   54  29  38 S12G20    29.97S
SPIRIT OF STL  SUNNY     53  28  38 S12G22    29.94F
COLUMBIA       SUNNY     52  30  43 S17G32    29.88S
JEFFERSON CITY SUNNY     54  26  34 S15G24    29.89S
MEXICO         SUNNY     52  37  58 S15       29.89S
HANNIBAL       SUNNY     52  28  40 S15       29.89S
ROLLA          SUNNY     50  28  42 S16       29.91S
LEBANON        SUNNY     52  28  40 S15       29.91S
OSAGE BEACH    SUNNY     54  27  35 S12G26    29.90S
SPRINGFIELD    MOSUNNY   53  27  36 S15G28    29.88R
BRANSON        MOSUNNY   54  27  35 S14G20    29.93F
NEVADA         SUNNY     54  30  40 S24G32    29.80F
JOPLIN         SUNNY     53  27  36 S23G36    29.81F
WEST PLAINS    MOSUNNY   49  28  44 S15G23    29.99S

$$

IAZ060-094-KSZ022-034>040-054-083-096-NEZ052-066-093-252200-
...KANSAS...SOUTHEAST NEBRASKA AND IOWA...

CITY           SKY/WX    TMP DP  RH WIND       PRES   REMARKS
TOPEKA         PTSUNNY   55  30  38 S20G29    29.64S
MANHATTAN      MOSUNNY   55  29  36 SW20G25   29.58R
EMPORIA        CLOUDY    53  28  38 S24G33    29.61F
CHANUTE        PTSUNNY   53  30  41 S30G37    29.72F
WICHITA        CLOUDY    56  27  32 S31G39    29.60S
OMAHA          MOSUNNY   49  31  49 S22       29.60S
LINCOLN        SUNNY     50  30  46 S17       29.56S
FALLS CITY     SUNNY     51  29  42 S21G35    29.60S
LAMONI         SUNNY     49  31  49 S15G22    29.68F
DES MOINES     MOSUNNY   50  32  50 S16       29.71F

$$




USA.gov is the U.S. government's official web portal to all federal, state and local government web resources and services.